Regional Weather Roundup
Issued by NWS

Home | Current Version | Previous Version | Graphics & Text | Print | Product List | Glossary On
Versions: 1 2 3 4 5 6 7 8 9 10 11 12 13 14 15 16 17 18 19 20 21 22 23 24 25 26 27
000
ASUS45 KCYS 170810
RWRWY

WYOMING REGIONAL WEATHER ROUNDUP
NATIONAL WEATHER SERVICE CHEYENNE WY
100 AM MST FRI NOV 17 2017

NOTE:  "FAIR" INDICATES FEW OR NO CLOUDS BELOW 12,000 FEET
WITH NO SIGNIFICANT WEATHER AND/OR OBSTRUCTIONS TO VISIBILITY.

WYZ001-170900-
YELLOWSTONE NATIONAL PARK

CITY           SKY/WX    TMP DP  RH WIND       PRES   REMARKS
LK YELLOWSTONE   N/A     28  26  92 W6        29.66S WCI  22
W YELLOWSTONE  NOT AVBL

$$
WYZ002>013-054>058-071-098>099-170900-
NORTHERN WYOMING

CITY           SKY/WX    TMP DP  RH WIND       PRES   REMARKS
JACKSON        CLOUDY    33  32  96 SW8       29.66F WCI  26
CODY           FAIR      34  32  92 SE5       29.61F WCI  30
GREYBULL       CLOUDY    39  35  86 W6        29.58F WCI  35
WORLAND        CLOUDY    41  38  89 E3        29.58F
SHERIDAN       LGT SNOW  33  33 100 CALM      29.67F FOG
BUFFALO        SNOW      33  31  92 N5        29.67F VSB 1/2 WCI  29
GILLETTE       CLOUDY    39  28  64 NE9       29.65F WCI  33
HULETT         CLOUDY    39  28  65 N7        29.67R WCI  34
NEWCASTLE      FAIR      39  30  70 S3        29.60S

$$
WYZ014>020-022>026-101>103-170900-
CENTRAL WYOMING

CITY           SKY/WX    TMP DP  RH WIND       PRES   REMARKS
BIG PINEY      LGT RAIN  34  33  96 SE3       29.71S
PINEDALE       FLURRIES  32  32 100 CALM      29.72S
DUBOIS         LGT SNOW  32  32 100 NW8       29.64S WCI  25
LANDER         FAIR      41  35  79 CALM      29.61S
RIVERTON       MOCLDY    44  32  62 NW16G25   29.61R
CASPER         CLOUDY    48  34  58 W14       29.62F
DOUGLAS        FAIR      54  31  41 W14       29.60F

$$
WYZ021-027>030-104>119-170900-
SOUTHERN WYOMING

CITY           SKY/WX    TMP DP  RH WIND       PRES   REMARKS
EVANSTON       LGT RAIN  37  37 100 SW17G24   29.77R WCI  27
FORT BRIDGER   RAIN      39  39 100 W17G24    29.78S WCI  29
ROCK SPRINGS   LGT RAIN  39  35  86 SW8       29.74F WCI  33
DIXON          CLOUDY    50  27  42 SW14      29.78F
RAWLINS        LGT RAIN  49  29  46 SW29G39   29.69F
SARATOGA       FAIR      50  28  43 SW37G49   29.70F
LARAMIE        MOCLDY    41  29  62 S8        29.74F
CHEYENNE       FAIR      51  28  41 SW14      29.68F
TORRINGTON     FAIR      43  29  57 CALM      29.60F
PINE BLUFFS    FAIR      37  28  70 MISG      29.68F

$$




USA.gov is the U.S. government's official web portal to all federal, state and local government web resources and services.